Location: Unspecified
(0.0000°N, 0.0000°E)
Time: 00:03:17
(UTC+00:00)

LightSail 2 - Pass Details

Date: 20 February 2020
Orbit: 698 x 724 km, 24.0° (Epoch: 26 February)

Event Time Altitude Azimuth Distance (km) Brightness Sun altitude
Rises 20:03:04 0° 217° (SW) 3,065 9.1 -26.8°
Reaches altitude 10° 20:06:30 10° 194° (SSW) 2,147 7.9 -27.6°
Enters shadow 20:08:19 14° 173° (S) 1,871 7.3 -28.1°
